Regional Weather Roundup
Issued by NWS

Home | Current Version | Previous Version | Graphics & Text | Print | Product List | Glossary On
Versions: 1 2 3 4 5 6 7 8 9 10 11 12 13 14 15 16 17 18 19 20 21 22 23 24 25 26 27 28 29 30 31 32 33 34 35 36 37 38 39 40 41 42 43 44 45 46 47 48 49
000
ASUS43 KDMX 211107
RWRIA

WEATHER ROUNDUP FOR IOWA
NATIONAL WEATHER SERVICE DES MOINES IA
600 AM CDT SUN SEP 21 2014

NOTE: "FAIR" INDICATES FEW OR NO CLOUDS BELOW 12,000 FEET WITH NO
SIGNIFICANT WEATHER AND/OR OBSTRUCTIONS TO VISIBILITY.

* - THESE STATIONS ARE NOT NWS STATIONS...THUS NOT UNDER NWS
QUALITY CONTROL.  THEY ALSO DO NOT REPORT WEATHER SUCH
AS PRECIPITATION OR FOG.

IAZ001>003-012>014-020>022-031>034-043>046-211200-
   NORTHWEST IOWA

CITY           SKY/WX    TMP DP  RH WIND       PRES   REMARKS
CARROLL *      CLEAR     52  48  87 W7        30.06R
CHEROKEE *     CLEAR     52  46  82 NW5       30.09R
DENISON *      CLEAR     52  50  93 NW6       30.08R
LE MARS *        N/A     50  46  87 W8        30.12R
ORANGE CITY *  CLEAR     50  43  76 NW7       30.10R
SHELDON *      CLEAR     48  46  93 NW7       30.09R
STORM LAKE *   CLEAR     52  48  87 NW13G18   30.07R
$$

IAZ055>058-069>071-079>083-090>094-211200-
   SOUTHWEST IOWA

CITY           SKY/WX    TMP DP  RH WIND       PRES   REMARKS
ATLANTIC *     CLEAR     55  50  82 W7        30.08R
AUDUBON *      CLEAR     55  46  71 NW5       30.08S
COUNCIL BLFS * CLEAR     55  52  88 W8        30.10R
CRESTON *      CLEAR     52  50  93 W7        30.08R
HARLAN  *      CLEAR     52  50  93 NW9       30.12S
RED OAK *      PTCLDY    54  52  94 W6        30.10R
SHENANDOAH *     N/A     52  52 100 CALM      30.12R
$$

IAZ047>049-059>061-072>074-084-211200-
   CENTRAL IOWA

CITY           SKY/WX    TMP DP  RH WIND       PRES   REMARKS
ANKENY *       CLEAR     55  50  82 W10       30.01R
CHARITON *     CLEAR     55  50  82 W10       30.03
GRINNELL*      CLEAR     55  50  82 W10       29.99R
KNOXVILLE *    CLEAR     54  50  87 W8        30.00R
PELLA *        CLEAR     57  52  82 W8        30.01R
PERRY *          N/A     55  48  76 NW7       30.04R
$$

IAZ004>006-015-016-023>025-035-036-211200-
   NORTH CENTRAL IOWA

CITY           SKY/WX    TMP DP  RH WIND       PRES   REMARKS
ALGONA *       CLEAR     54  46  76 NW9G17    30.03R
CLARION *        N/A     52  48  87 NW9       30.01R
FOREST CITY *  CLEAR     52  48  87 NW12G18   29.99R
IOWA FALLS *     N/A     52  48  87 NW9       30.00R
$$

IAZ007>011-017>019-026>030-037>042-050>054-066-211200-
   NORTHEAST IOWA

CITY           SKY/WX    TMP DP  RH WIND       PRES   REMARKS
CHARLES CITY * CLEAR     54  50  87 NW12G18   29.94R
DECORAH *      CLOUDY    54  50  87 NW10G18   29.89R
MONTICELLO *   CLEAR     55  52  88 W9        29.89S
OELWEIN *      CLEAR     54  50  87 W13       29.92R
$$

IAZ064-065-067-068-078-211200-
   EAST CENTRAL IOWA

CITY           SKY/WX    TMP DP  RH WIND       PRES   REMARKS
MT. PLEASANT * CLEAR     54  54 100 W8        29.96S
MUSCATINE *    CLEAR     57  52  82 W13       29.93S
$$

IAZ062-063-075>077-085>089-095>099-211200-
   SOUTHEAST IOWA

CITY           SKY/WX    TMP DP  RH WIND       PRES   REMARKS
FAIRFIELD *    CLEAR     54  52  94 W8        29.97S
FORT MADISON * CLEAR     57  54  88 W5        29.97S
KEOKUK *       CLEAR     54  52  94 W8        29.97S
OSKALOOSA *      N/A     54  52  94 W8        30.00R
CENTERVILLE *  CLEAR     52  50  93 W6        30.03S
WASHINGTON *   CLEAR     55  54  94 W9        29.96R
$$

ABBREVIATIONS USED IN REMARKS
   TC - TEMPERATURES IN CELSIUS
  WCI - WIND CHILL INDEX
   HX - HEAT INDEX
  VSB - VISIBILITY
$$



USA.gov is the U.S. government's official web portal to all federal, state and local government web resources and services.